User: anonymous   Login
Location: Fishcreek Rd Observing Site
(41.1865°N, 81.4271°W)
Time: 08:38:59
(UTC-04:00)
Language:

Iridium 45 - Orbit

View from above orbital plane
View from above orbital plane
View from above satellite
View from above satellite

Ground track
Ground track

The orbit data is extracted from the following two-line orbital elements,

1 25104U 97082A   15180.23696928  .00000154  00000-0  47876-4 0  9994
2 25104 086.3961 227.7425 0003978 109.1072 251.0555 14.34225798917323
Epoch (UTC): 29 June 2015 05:41:14
Eccentricity: 0.0003978
inclination: 86.3961°
perigee height: 775 km
apogee height: 780 km
right ascension of ascending node: 227.7425°
argument of perigee: 109.1072°
revolutions per day: 14.34225798
mean anomaly at epoch: 251.0555°
orbit number at epoch: 91732

The dashed part of the orbit path shows where the satellite is in the earth's shadow,  

DLR